Location: Poughquag
(41.6090°N, 73.6820°W)
Time: 11:18:47
(UTC-04:00)

Tiros 1 - Pass Details

Date: 04 June 2020
Orbit: 630 x 664 km, 48.4° (Epoch: 06 July)

Event Time Altitude Azimuth Distance (km) Brightness Sun altitude
Rises 18:47:22 0° 288° (WNW) 2,940 12.4 15.8°
Reaches altitude 10° 18:50:19 10° 269° (W) 2,021 11.5 15.3°
Maximum altitude 18:53:26 18° 227° (SW) 1,552 9.6 14.7°
Drops below altitude 10° 18:56:32 10° 184° (S) 2,002 9.6 14.2°
Sets 18:59:27 0° 165° (SSE) 2,901 10.2 13.7°
